Location: Academy at Carrie F Thomas
(32.8490°N, 97.2053°W)
Time: 09:40:16
(UTC+00:00)

Meteor 1-25 Rocket - Pass Details

Date: 11 July 2022
Orbit: 835 x 892 km, 81.2° (Epoch: 14 August)

Event Time Altitude Azimuth Distance (km) Brightness Sun altitude
Exits shadow 07:45:34 41° 80° (E) 1,267 5.2 -32.5°
Drops below altitude 10° 07:50:31 10° 24° (NNE) 2,553 7.6 -32.1°
Sets 07:53:05 0° 17° (NNE) 3,489 8.5 -31.9°
